Location: Poughquag
(41.6090°N, 73.6820°W)
Time: 14:08:04
(UTC-04:00)

Explorer 11/Cluster Stage 4 - Pass Details

Date: 04 June 2020
Orbit: 467 x 1259 km, 28.8° (Epoch: 05 July)

Event Time Altitude Azimuth Distance (km) Brightness Sun altitude
Rises 04:26:41 0° 209° (SSW) 2,981 - -9.1°
Exits shadow 04:28:40 - 196° (SSW) 2,506 8.7 -8.8°
Reaches altitude 10° 04:30:18 10° 180° (S) 2,249 8.5 -8.6°
Maximum altitude 04:32:34 13° 155° (SSE) 2,179 8.7 -8.3°
Drops below altitude 10° 04:35:00 10° 130° (SE) 2,487 9.3 -7.9°
Sets 04:39:29 0° 104° (ESE) 3,646 10.6 -7.3°
